GEFSNGP_con_maxscp_186.txt.gz
SCP
0 0 0 0 0 0 0 1 2 2 3 3 5 7 7 6 6 6 7 6 6 5 5 6 8 8 9 10 10 9 8 8 7 6 5 5 4 4 3 2 2 2 2 2
0 0 0 0 0 0 0 1 2 3 3 4 5 6 6 6 6 6 6 6 6 6 6 7 8 9 10 11 12 11 9 9 8 8 7 6 5 4 3 2 2 2 2 2
0 0 0 0 1 1 1 2 2 3 4 5 5 5 5 6 6 6 5 5 6 7 7 8 8 10 11 12 14 14 11 10 11 12 12 9 7 4 3 2 2 2 2 2
0 0 0 1 1 1 2 3 3 5 6 7 6 6 6 6 6 5 5 5 6 7 9 10 10 11 11 11 13 15 14 13 16 18 16 12 7 4 3 2 2 2 2 2
0 0 0 1 1 2 3 4 5 8 9 8 8 8 8 7 6 7 8 9 9 10 12 14 14 13 12 11 12 15 17 18 20 20 16 10 5 3 3 3 2 2 2 2
0 0 1 1 2 2 3 4 6 9 10 8 9 11 12 11 9 11 15 16 14 13 16 18 17 16 14 12 12 15 19 21 20 16 11 6 4 3 3 3 2 2 2 1
0 0 1 2 2 2 2 3 6 9 9 8 10 14 16 16 14 16 20 19 16 17 19 19 17 16 14 12 11 14 19 20 15 9 6 4 3 3 3 3 2 2 1 1
0 1 1 2 3 2 3 4 7 9 9 9 12 16 19 21 20 19 20 20 19 20 20 18 15 14 13 11 11 14 19 18 11 6 4 3 3 3 3 3 2 2 1 1
3 2 2 3 3 3 4 7 10 11 11 12 14 18 23 27 26 23 20 20 21 22 20 17 14 13 12 11 11 15 19 16 9 5 4 3 3 3 2 2 2 2 1 1
6 5 4 4 4 5 7 9 11 11 11 13 17 21 26 29 28 24 23 23 24 24 22 19 16 14 12 12 12 15 16 11 6 5 4 4 3 3 2 2 2 2 1 1
8 6 5 4 5 6 8 9 11 11 12 16 23 27 28 27 25 23 24 26 28 28 26 21 17 13 11 10 10 11 11 7 5 4 5 4 4 3 2 2 2 2 1 1
7 6 5 5 5 7 8 9 10 11 15 22 30 31 28 24 20 19 21 23 25 25 23 19 14 12 10 8 8 7 6 5 4 4 5 5 4 3 2 2 1 1 1 1
8 7 6 6 6 6 7 8 8 10 17 26 31 30 27 22 17 15 15 14 15 15 14 13 11 10 9 8 7 6 6 5 4 4 4 5 4 3 2 2 1 1 1 0
10 10 9 8 7 7 7 8 7 8 14 20 22 22 22 19 15 11 8 7 7 8 9 10 10 10 9 8 7 7 6 5 4 3 4 4 4 3 2 2 2 1 1 0
13 13 11 10 9 8 8 8 7 7 7 9 10 12 13 13 10 6 4 3 3 5 8 9 10 10 10 8 7 7 7 6 4 3 3 3 3 3 2 2 2 1 1 0
12 12 12 11 10 9 8 7 6 5 4 3 4 4 5 5 5 3 1 1 2 3 5 7 9 11 12 11 10 9 8 6 5 3 2 2 2 2 1 2 2 1 1 1
8 8 8 9 9 7 6 5 4 3 2 2 2 1 2 2 1 1 0 0 1 1 2 5 7 10 13 14 13 12 10 8 5 3 2 1 1 1 1 1 1 1 1 1
4 4 4 5 6 5 4 3 2 2 1 1 1 1 1 1 0 0 0 0 0 0 1 2 4 8 12 16 16 15 13 10 6 3 1 0 0 0 0 0 0 1 1 1
2 2 2 2 3 3 2 2 1 1 1 1 1 0 0 0 0 0 0 0 0 0 0 1 2 5 10 14 17 17 15 11 7 3 1 0 0 0 0 0 0 0 1 0
2 2 2 1 2 2 1 1 1 1 1 0 0 0 0 0 0 0 0 0 0 0 0 0 1 3 7 11 14 16 15 12 7 3 1 0 0 0 0 0 0 0 0 0
1 1 1 1 1 1 1 1 1 0 0 0 0 0 0 0 0 0 0 0 0 0 0 0 1 3 5 7 11 14 15 12 8 3 1 0 0 0 0 0 0 0 0 0
1 1 1 1 1 1 1 0 0 0 0 0 0 0 0 0 0 0 0 0 0 0 0 0 1 3 4 5 7 10 12 11 8 3 1 0 0 0 0 0 0 0 0 0
1 1 1 0 0 0 0 0 0 0 0 0 0 0 0 0 0 0 0 0 0 0 0 0 1 3 4 4 5 6 7 8 5 2 1 0 0 0 0 0 0 0 0 0
0 0 0 0 0 0 0 0 0 0 0 0 0 0 0 0 0 0 0 0 0 0 0 0 1 2 3 3 2 2 3 3 2 1 0 0 0 0 0 0 0 0 0 0
0 0 0 0 0 0 0 0 0 0 0 0 0 0 0 0 0 0 0 0 0 0 0 0 1 1 1 1 1 0 1 1 1 0 0 0 0 0 0 0 0 0 0 0
0 0 0 0 0 0 0 0 0 0 0 0 0 0 0 0 0 0 0 0 0 0 0 0 0 0 1 1 0 0 1 1 1 0 0 0 0 0 0 0 0 0 0 0
0 0 0 0 0 0 0 0 0 0 0 0 0 0 0 0 0 0 0 0 0 0 0 0 0 0 0 0 0 0 1 1 1 1 0 0 0 0 0 0 0 0 0 0

GEFSNGP_con_maxscp_192.txt.gz
SCP
0 0 1 1 1 0 0 0 0 1 1 1 1 1 1 2 4 4 4 4 3 4 4 6 7 8 10 11 13 14 14 13 13 13 12 12 11 11 11 10 9 7 6 6
1 1 1 1 1 1 0 0 1 1 1 1 1 1 1 2 4 5 4 4 3 4 4 5 6 7 8 12 15 16 16 15 15 14 14 14 14 13 13 12 11 9 7 7
0 0 0 0 0 0 0 0 1 1 1 1 1 1 1 2 4 5 4 4 4 4 4 4 5 5 7 11 16 18 18 17 16 16 16 16 16 15 14 13 12 11 9 8
0 0 0 0 0 0 0 0 1 1 1 2 2 1 1 2 4 4 5 5 5 5 4 4 4 5 7 11 15 17 18 17 17 16 16 15 15 14 14 13 12 11 10 9
0 0 0 0 0 0 1 1 1 1 2 2 2 2 2 2 3 4 5 6 6 6 5 5 5 6 8 12 16 17 16 15 14 13 13 12 11 11 11 10 10 10 10 9
0 0 0 0 0 1 1 1 1 2 3 3 2 2 2 3 3 4 5 6 7 7 6 6 7 7 9 11 15 15 13 10 9 9 8 7 7 7 7 7 8 8 8 8
0 0 0 0 0 1 1 1 1 2 3 3 2 3 3 4 4 4 5 6 7 7 7 7 8 9 9 10 11 11 8 6 5 6 5 4 4 4 4 4 5 5 5 5
0 0 0 0 1 1 1 1 1 2 2 3 3 3 4 5 4 4 4 5 7 7 7 8 9 9 9 9 9 8 7 6 5 5 4 3 2 2 2 2 2 3 3 2
1 1 1 1 2 2 1 1 2 2 2 3 3 4 5 6 5 5 4 5 6 7 7 8 8 9 9 9 8 9 9 9 7 6 4 3 2 2 2 2 2 2 2 1
2 2 2 2 2 2 2 2 2 2 2 3 4 5 7 8 8 6 5 4 5 6 7 8 8 8 8 8 8 9 11 12 10 7 4 2 2 2 2 2 2 2 2 1
3 3 3 3 3 2 2 2 2 2 3 4 4 6 8 9 9 7 5 5 5 6 7 8 8 7 7 7 7 8 10 12 10 7 4 2 2 2 2 2 2 2 2 2
2 3 3 3 3 2 2 2 3 4 5 5 5 6 8 9 8 5 4 4 5 7 7 7 7 6 5 5 6 7 9 9 8 5 4 4 4 3 2 2 2 1 1 1
2 2 3 3 3 3 3 4 6 7 8 7 5 5 7 7 5 4 3 4 6 7 7 7 6 5 5 5 6 7 8 7 6 4 4 4 4 3 2 1 1 1 1 1
2 2 2 2 2 3 5 7 8 9 9 8 6 5 4 4 4 4 4 5 6 7 7 6 5 5 5 5 6 6 6 5 5 4 3 3 3 2 1 1 0 1 1 1
1 1 1 2 3 5 6 7 8 9 9 7 5 4 3 4 5 5 4 5 6 6 5 4 3 3 4 4 4 5 5 4 4 4 3 2 1 1 1 0 0 1 1 1
1 1 1 2 4 5 6 6 7 7 6 5 3 3 3 4 4 4 4 4 5 5 4 3 2 2 2 3 3 4 4 4 4 4 3 2 1 1 0 0 0 0 1 1
1 1 2 3 3 3 4 4 5 5 4 3 2 2 2 2 2 2 2 4 4 4 3 2 2 1 1 1 2 3 4 4 5 5 4 2 1 1 1 0 0 0 0 0
2 2 3 3 3 2 2 3 3 3 3 2 1 1 1 1 1 1 1 2 2 2 2 1 1 1 1 1 1 3 5 6 7 7 6 4 2 1 0 0 0 0 0 0
3 3 3 3 3 2 2 2 2 2 2 2 1 1 1 1 1 0 0 1 1 1 0 0 0 0 0 0 1 1 3 5 8 8 7 6 4 2 1 0 0 0 0 0
2 2 3 3 2 2 2 2 1 2 2 2 1 1 1 0 0 0 0 0 0 0 0 0 0 0 0 0 0 0 1 3 5 6 6 6 5 4 2 1 0 0 0 0
1 1 1 1 1 1 1 1 1 1 2 2 1 1 0 0 0 0 0 0 0 0 0 0 0 0 0 0 0 0 1 1 2 3 4 5 6 5 4 3 1 0 0 0
0 0 0 0 0 0 0 0 0 1 1 1 1 0 0 0 0 0 0 0 0 0 0 0 0 0 0 0 0 0 0 0 1 1 3 4 5 5 5 4 2 0 0 0
0 0 0 0 0 0 0 0 0 0 0 0 0 0 0 0 0 0 0 0 0 0 0 0 0 0 0 0 0 0 0 0 1 1 2 3 4 4 5 4 2 0 0 0
0 0 0 1 0 0 0 0 0 0 0 0 0 0 0 0 0 0 0 0 0 0 0 0 0 0 0 0 0 0 0 0 1 1 1 2 2 3 3 3 1 0 0 0
0 0 0 0 0 0 0 0 0 0 0 0 0 0 0 0 0 0 0 0 0 0 0 0 0 0 0 0 0 0 0 0 0 0 0 1 1 1 1 1 1 0 0 0
0 0 0 0 0 0 0 0 0 0 0 0 0 0 0 0 0 0 0 0 0 0 0 0 0 0 0 0 0 1 1 1 0 0 0 0 1 0 0 0 0 0 0 0
0 0 0 0 0 0 0 0 0 0 0 0 0 0 0 0 0 0 0 0 0 0 0 0 0 0 0 0 0 1 1 1 0 0 0 0 0 0 0 0 0 0 0 0

GEFSNGP_con_maxscp_198.txt.gz
SCP
0 0 0 0 0 0 0 0 0 0 1 2 2 2 2 3 4 4 4 4 4 5 6 8 9 9 8 7 6 6 10 13 11 10 11 11 10 8 6 5 5 5 5 4
0 0 0 0 0 0 0 0 0 1 1 2 2 2 2 3 4 4 4 4 5 7 8 9 10 9 8 7 6 7 9 12 11 10 11 12 11 9 7 6 5 6 6 5
0 0 0 0 1 1 0 1 1 1 1 2 2 2 2 3 3 4 5 5 6 8 9 10 10 9 8 7 7 8 9 11 12 11 11 12 12 10 8 6 6 6 6 6
0 0 0 0 1 1 1 1 1 1 2 2 2 2 2 2 3 4 5 6 7 7 8 9 9 8 7 7 8 9 11 13 13 11 10 11 11 9 7 6 6 5 5 5
0 0 0 0 1 1 1 1 2 2 2 2 2 2 2 3 3 4 5 6 7 6 6 6 6 7 7 8 10 12 13 14 12 11 10 10 10 7 6 5 5 5 5 6
0 0 0 1 1 1 1 2 2 2 2 3 3 2 2 3 4 4 5 6 7 7 6 6 6 7 8 9 12 15 16 14 10 9 9 9 8 6 5 4 4 5 6 6
0 0 1 1 1 1 2 2 3 2 3 3 3 3 3 3 4 4 5 6 7 7 7 7 7 7 8 9 12 15 15 13 9 8 9 9 8 6 5 4 4 4 5 5
1 1 2 3 3 3 4 4 4 3 3 4 4 3 3 4 5 5 6 6 7 8 8 7 7 7 8 9 11 13 13 12 10 10 10 10 9 8 5 4 4 4 4 4
1 2 2 4 5 5 6 5 5 4 4 4 4 4 4 4 5 6 7 8 8 9 8 7 7 8 8 9 11 12 12 12 12 12 12 12 12 9 6 5 4 4 4 4
2 2 3 4 5 5 6 5 4 3 4 4 4 4 4 4 6 7 8 9 9 10 10 8 7 8 9 9 10 12 12 13 13 13 13 13 12 9 6 5 4 5 4 3
2 3 3 3 4 4 4 4 4 4 4 4 4 4 4 5 6 8 9 9 9 9 10 9 8 8 9 10 11 12 13 12 12 12 12 12 10 7 5 4 3 4 4 3
2 2 3 3 3 3 4 4 4 4 5 5 4 3 3 5 7 10 11 10 8 8 9 10 9 9 10 10 11 12 12 12 11 10 10 9 8 6 4 3 2 2 2 2
2 2 2 3 3 3 4 4 4 6 6 5 3 2 3 4 7 10 11 10 8 7 8 9 10 10 9 9 11 13 13 11 9 8 7 7 6 5 5 4 3 2 1 1
2 2 3 3 4 4 3 3 5 6 5 3 2 2 3 4 7 9 10 9 7 7 6 7 8 8 7 8 11 14 13 10 8 7 6 6 6 6 6 6 5 4 2 1
2 3 3 4 4 4 3 4 6 6 4 2 2 2 3 5 7 8 8 7 7 6 6 6 7 7 7 8 11 12 11 9 7 7 6 7 7 7 7 7 6 6 5 3
3 3 3 3 3 4 4 4 5 4 2 2 2 3 4 5 7 7 7 6 5 5 5 5 6 7 8 9 11 10 9 8 7 7 7 7 7 8 8 8 8 7 7 6
2 2 2 2 2 3 3 4 4 3 3 3 3 3 4 4 6 6 5 5 4 4 4 5 6 8 9 11 10 9 7 6 5 5 6 7 7 8 8 8 8 8 8 8
1 1 1 1 1 2 3 3 3 3 4 4 4 3 3 4 5 5 5 5 5 4 4 4 5 7 8 8 8 6 5 4 4 3 4 4 5 5 6 7 7 7 7 8
2 2 1 1 1 1 2 2 2 3 4 4 4 3 3 4 5 5 6 5 5 4 3 3 4 5 5 5 4 4 3 2 2 2 2 2 2 3 3 4 4 5 5 6
3 2 2 1 1 1 1 1 2 2 2 3 3 3 3 4 5 5 5 5 4 3 2 2 2 3 3 2 2 2 1 1 1 1 1 1 1 1 1 2 2 3 3 4
2 2 2 2 1 2 1 1 2 2 2 2 2 2 3 3 4 4 4 3 3 2 1 1 1 1 1 1 1 1 1 1 1 1 1 0 0 1 1 1 1 2 2 3
2 2 2 1 2 2 2 2 2 2 2 2 2 2 2 2 2 2 2 2 2 1 1 1 1 1 0 0 0 0 0 0 0 0 1 1 1 1 1 1 1 2 2 2
2 2 2 2 2 2 2 2 2 2 2 1 1 1 1 2 2 2 2 2 1 1 1 1 0 0 0 0 0 0 0 0 0 0 1 1 1 1 1 1 1 2 2 2
1 1 1 2 3 3 3 2 2 2 1 1 1 1 1 2 1 1 1 1 0 0 0 0 0 0 0 0 0 1 0 0 0 0 1 1 1 1 1 1 1 1 1 1
1 1 1 1 2 2 2 2 1 1 1 1 1 1 1 1 1 1 0 0 0 0 0 0 0 0 0 0 0 0 0 0 0 0 0 1 1 1 1 1 1 1 1 1
0 0 0 1 1 1 1 1 1 1 1 1 1 1 1 1 0 0 0 0 0 0 0 0 0 0 0 0 0 0 0 0 0 0 0 1 1 1 1 1 1 1 1 1
0 0 0 0 1 1 0 0 0 0 0 0 0 0 0 0 0 0 0 0 0 0 0 0 0 0 0 0 0 0 0 0 0 0 0 1 1 1 1 1 1 1 1 1

GEFSNGP_con_maxscp_204.txt.gz
SCP
0 0 0 0 0 0 0 0 1 1 2 4 5 5 5 6 6 7 7 7 7 8 10 13 14 15 15 15 15 15 14 11 9 8 8 9 12 15 14 10 9 8 7 6
0 0 0 0 0 0 0 0 1 1 3 5 6 6 6 6 7 7 7 7 7 9 11 14 16 17 17 15 15 15 14 11 9 8 7 8 12 14 12 10 9 8 8 8
0 0 0 0 0 0 0 1 1 2 3 6 6 6 5 6 7 7 7 7 7 8 10 13 15 16 16 16 15 14 13 12 10 9 8 8 10 11 11 9 9 8 9 10
0 0 0 1 1 1 1 1 2 3 4 6 6 5 5 5 7 7 7 7 7 6 7 9 11 12 13 15 15 15 14 12 11 9 9 9 9 10 11 10 10 9 9 9
1 1 1 1 1 1 1 2 3 4 6 6 6 5 5 6 8 9 9 9 7 6 6 7 8 10 13 16 17 16 15 14 11 9 9 9 9 10 12 12 11 10 10 10
1 1 1 2 2 2 2 2 3 4 6 7 6 5 7 9 10 11 11 11 11 9 8 8 9 10 14 18 19 18 16 14 11 9 9 9 9 11 13 13 12 11 11 11
1 1 2 2 3 3 3 3 4 5 7 8 8 8 10 12 12 11 12 13 14 13 12 12 12 13 15 19 19 18 17 14 11 10 9 9 10 11 12 12 12 10 9 9
1 2 3 4 4 5 6 7 7 8 9 11 11 10 10 13 13 11 10 11 13 16 18 19 18 17 17 18 19 18 17 15 12 11 10 10 11 12 11 10 9 8 7 6
3 4 5 6 6 6 7 9 10 10 10 11 10 9 10 13 15 11 9 9 11 14 18 21 21 19 19 19 18 18 18 15 13 13 12 12 13 13 12 10 9 8 6 5
4 5 7 8 8 8 7 7 9 9 9 9 8 8 9 12 14 13 10 9 11 13 16 18 18 19 19 18 18 18 17 15 14 15 15 15 15 15 13 12 11 8 6 5
3 4 7 10 11 10 8 7 8 9 10 9 8 7 8 9 11 12 10 11 13 15 15 15 16 16 16 15 16 17 16 14 14 15 16 16 16 14 13 13 12 9 6 5
2 3 5 7 11 13 12 10 9 9 9 9 7 6 6 6 8 9 8 9 12 14 14 14 15 14 12 12 13 15 15 13 13 12 13 14 13 11 10 10 9 6 4 3
3 3 3 4 7 11 12 10 9 8 7 7 6 5 5 5 6 7 6 6 8 10 12 13 14 13 11 10 12 14 13 12 11 10 10 10 9 8 7 7 5 3 2 2
3 3 3 3 5 6 7 7 7 6 6 6 5 5 5 5 6 7 6 6 7 9 11 12 12 11 10 9 10 12 11 10 10 9 9 9 8 7 7 6 5 3 2 1
4 4 4 4 4 3 3 4 5 5 6 5 5 5 5 5 6 7 6 7 9 10 11 10 9 8 8 8 9 9 9 8 8 9 10 10 8 7 7 6 6 5 4 3
4 4 3 4 4 3 2 2 3 4 5 5 4 4 4 5 5 5 6 8 10 11 9 8 7 7 7 7 8 8 7 7 7 9 10 9 8 7 6 6 6 6 5 4
2 2 3 3 3 3 2 2 2 3 4 4 3 3 4 4 5 5 7 9 10 10 8 7 6 6 6 7 7 7 7 8 9 10 9 8 6 6 7 7 7 7 6 5
2 2 2 3 3 3 2 2 2 2 3 3 3 3 3 4 5 6 8 9 9 8 7 6 5 5 5 5 6 6 8 10 10 10 8 6 5 6 7 8 8 7 6 5
2 2 2 3 4 3 2 2 2 2 2 3 3 4 4 5 6 7 8 8 8 7 6 5 4 4 5 5 5 6 7 8 8 7 5 3 3 5 6 7 7 6 5 4
2 2 2 3 3 3 2 2 2 2 2 2 3 4 5 6 7 8 8 7 6 5 4 4 4 4 4 4 4 4 5 4 4 3 2 1 2 3 3 3 3 2 2 2
1 1 1 2 2 3 2 2 2 2 2 2 3 4 5 6 7 8 8 6 4 3 3 3 3 3 3 3 2 2 2 2 2 1 1 1 1 1 1 1 1 1 1 1
1 1 1 1 2 2 2 2 2 2 2 2 3 4 4 5 6 6 5 3 2 2 2 2 2 2 2 1 1 1 1 1 1 1 1 1 1 1 1 1 1 1 1 1
1 1 1 1 1 1 1 1 1 2 2 2 2 3 3 4 4 4 3 2 1 1 2 2 1 1 1 1 1 1 2 1 1 1 0 0 1 1 1 1 1 1 1 1
2 2 2 1 1 1 1 1 1 2 2 2 2 2 2 2 3 2 1 1 1 1 1 1 0 0 0 1 1 2 2 2 1 1 0 1 1 1 1 1 1 1 1 1
2 2 1 1 1 1 1 1 1 1 1 1 1 1 1 1 1 1 1 1 0 1 1 0 0 0 0 1 2 2 3 2 1 1 1 1 1 2 2 2 1 1 1 0
1 1 1 1 1 1 1 1 1 1 1 1 1 1 1 1 1 1 1 1 1 1 1 1 0 0 1 1 2 2 2 1 1 0 1 1 1 1 2 2 1 1 0 0
1 1 0 0 1 1 1 1 1 1 0 0 0 1 1 1 1 1 1 1 1 1 1 1 1 1 1 1 1 1 1 0 0 1 1 1 1 1 1 1 1 0 0 0

GEFSNGP_con_maxscp_210.txt.gz
SCP
0 0 0 0 0 0 0 1 1 2 3 5 8 10 10 9 8 8 8 8 8 7 6 6 6 5 5 6 7 8 8 7 6 7 10 13 12 10 9 8 7 7 6 6
0 0 0 0 0 1 1 1 1 2 3 5 8 9 9 8 7 7 7 7 7 6 6 6 6 6 6 6 7 7 8 8 7 9 12 15 14 11 9 8 7 7 7 6
0 0 0 0 1 1 1 1 2 3 3 5 8 9 9 8 6 6 6 6 6 6 6 6 6 7 7 6 6 6 7 8 9 10 14 17 15 11 9 8 7 7 7 7
0 0 0 1 1 2 2 3 3 3 4 6 9 10 9 7 7 6 6 6 6 6 7 5 5 7 8 7 5 5 6 7 8 11 14 15 12 10 8 8 7 7 6 6
0 0 1 1 1 2 3 4 5 5 6 7 9 9 8 7 7 6 5 5 5 6 6 5 5 7 8 8 7 6 5 6 7 9 11 11 10 9 9 8 7 6 6 5
0 1 1 1 2 2 3 4 6 7 7 7 7 7 7 9 9 8 7 6 6 6 6 6 7 8 9 11 10 8 6 6 6 7 8 9 9 9 9 9 8 6 5 5
0 1 1 2 2 2 3 4 5 6 6 7 9 10 13 17 17 14 11 9 8 8 8 8 10 11 12 12 11 8 7 6 5 6 7 9 9 9 8 8 7 6 5 5
1 1 1 2 2 3 4 5 6 6 7 9 12 16 20 22 21 18 14 12 10 11 11 12 12 13 13 12 10 8 7 6 5 6 7 9 9 8 8 8 6 5 5 4
1 1 2 2 2 3 5 7 8 8 8 10 13 17 20 21 19 16 13 11 11 11 12 12 12 14 14 12 9 7 7 6 6 6 8 9 10 9 9 8 7 6 5 5
2 2 2 3 3 4 5 7 8 7 8 8 11 16 20 22 20 16 13 11 11 11 12 11 11 12 13 12 10 8 7 7 8 8 9 10 10 10 10 10 9 7 6 6
1 2 2 3 3 4 4 5 5 5 5 6 9 16 23 25 21 17 14 12 12 13 12 11 9 9 10 10 10 9 8 8 9 9 9 9 9 9 9 10 9 8 8 7
1 1 2 2 3 3 3 2 2 2 3 4 6 12 20 23 19 15 13 12 12 12 11 9 7 6 7 7 9 9 9 8 8 9 9 8 7 7 7 7 6 6 6 7
1 1 1 2 2 2 2 1 1 2 2 3 4 8 15 19 18 14 11 10 9 8 7 5 4 5 6 6 6 8 8 8 7 8 8 6 5 5 5 5 4 3 3 3
1 1 1 1 2 2 1 1 1 2 3 3 4 6 10 14 14 12 9 7 6 5 4 3 3 4 5 5 5 6 7 7 6 6 5 5 4 4 4 4 4 3 2 2
2 2 2 2 2 1 1 1 2 4 5 5 4 4 6 8 9 8 7 6 6 5 4 3 3 4 6 5 5 5 5 6 5 4 4 4 4 4 4 4 4 5 4 3
3 2 2 2 2 2 2 2 3 5 6 5 3 2 3 4 5 5 5 5 5 4 3 3 4 5 6 6 5 5 5 5 5 4 4 4 4 4 3 3 4 4 5 5
2 2 2 2 2 2 2 2 2 3 4 3 2 1 1 2 3 3 4 4 4 3 3 3 4 6 6 5 5 5 6 5 4 4 4 4 4 4 3 3 3 3 4 5
1 1 2 2 2 2 2 1 1 1 2 2 1 1 1 1 2 2 3 3 2 2 2 3 4 5 5 5 5 6 6 6 5 5 5 5 5 5 4 3 2 2 3 3
1 1 1 2 2 2 1 1 1 1 1 1 1 1 1 1 1 2 2 2 2 2 2 3 3 4 4 4 4 5 6 6 6 5 5 6 6 6 4 2 2 2 2 2
0 0 1 1 1 1 1 0 0 0 0 1 1 2 2 1 1 1 2 2 2 2 2 2 3 3 3 3 4 5 5 5 5 4 4 4 5 4 3 2 2 2 1 2
0 0 0 0 0 0 0 0 0 0 0 0 1 2 2 2 1 1 1 2 1 2 2 2 2 3 3 3 3 4 5 4 4 3 3 3 2 2 1 1 1 1 1 1
0 0 0 1 1 1 0 0 0 0 0 1 1 1 1 1 1 0 1 1 1 1 1 1 2 2 2 2 2 3 4 4 3 3 2 1 1 1 0 0 1 1 1 1
0 0 0 1 1 1 0 0 0 0 0 0 1 1 1 1 0 0 0 1 1 1 1 1 1 1 1 1 1 2 3 3 3 2 2 1 0 0 0 0 0 0 0 0
0 0 0 1 1 1 0 0 0 0 0 0 0 0 0 0 0 0 1 1 0 0 0 0 0 0 0 0 1 1 2 2 2 2 1 1 0 0 0 0 0 0 0 0
0 0 0 0 0 0 0 0 0 0 0 0 0 0 0 0 0 0 0 0 0 0 0 0 0 0 0 0 0 1 1 2 2 1 1 0 0 0 0 0 0 0 0 0
0 0 0 0 0 0 0 0 0 0 0 0 0 0 0 0 0 0 0 0 0 0 0 0 0 0 0 0 0 0 1 1 1 1 1 0 0 0 0 0 0 0 0 0
0 0 0 0 0 0 0 0 0 0 0 0 0 0 0 0 0 0 0 0 0 0 0 0 0 0 0 0 0 0 1 1 1 1 1 0 0 0 0 0 0 0 0 0

GEFSNGP_con_maxscp_216.txt.gz
SCP
0 0 1 1 1 1 0 0 0 0 1 2 3 4 4 4 4 4 4 4 4 4 4 3 3 3 3 3 3 3 3 3 3 3 4 4 3 3 3 4 5 6 6 6
0 0 1 1 1 1 1 1 1 1 1 2 3 3 3 3 4 4 3 4 4 5 4 3 3 4 4 4 4 4 3 3 3 3 4 4 3 3 3 4 7 8 8 8
0 0 1 1 1 1 1 1 1 1 2 3 3 3 3 3 4 4 4 4 4 4 4 4 5 5 5 5 5 4 3 3 3 3 3 3 3 3 3 4 7 10 11 10
0 0 1 1 1 1 2 2 2 3 4 4 4 3 3 3 4 4 4 4 4 4 4 5 5 6 6 6 6 5 4 3 3 3 3 2 3 3 4 5 7 11 13 12
0 0 1 1 1 2 2 2 3 4 4 4 4 3 3 3 3 3 3 3 4 5 5 5 5 6 7 7 6 5 4 4 4 3 3 3 3 5 6 8 10 13 14 14
0 0 1 1 2 2 2 3 3 4 4 3 3 3 3 3 3 2 2 4 6 6 6 6 5 6 7 7 6 4 4 4 5 5 4 4 4 6 9 11 13 14 13 13
0 1 1 2 2 2 2 2 3 3 3 3 3 3 3 3 3 3 3 4 6 7 7 7 6 5 6 6 5 4 4 4 5 6 6 5 5 7 10 12 13 11 9 8
1 1 2 3 3 2 1 2 3 3 3 3 3 3 4 4 4 3 3 4 7 8 8 8 6 5 5 5 5 4 4 4 5 6 6 6 6 7 9 10 10 7 5 4
2 2 3 3 2 2 2 2 3 3 4 4 4 4 4 4 4 4 4 5 7 8 9 9 7 6 6 6 6 5 5 4 4 5 5 5 5 6 7 7 6 5 4 4
4 3 3 2 2 2 2 2 2 3 4 4 4 4 3 3 3 3 4 5 7 9 10 10 9 8 7 7 6 6 5 4 4 4 4 4 4 5 5 5 5 6 6 5
3 2 2 2 1 1 1 2 2 2 2 3 3 3 3 2 3 3 4 5 6 8 11 12 11 9 7 6 5 5 4 4 4 4 4 4 4 4 5 5 5 6 6 6
1 1 1 1 1 1 1 1 1 1 1 1 2 2 2 3 3 4 5 5 6 8 12 13 10 7 6 5 4 4 4 4 5 5 5 5 5 4 4 4 4 4 4 4
1 1 1 1 1 1 1 1 1 1 1 1 2 2 3 4 4 4 5 6 7 9 12 12 8 5 4 4 3 3 3 4 4 5 5 5 4 4 4 3 2 2 1 1
1 1 1 1 1 1 1 1 1 1 1 1 1 2 3 5 6 5 5 6 8 10 11 10 7 5 3 3 3 2 3 3 4 4 4 4 4 4 4 3 3 2 1 0
1 1 1 1 1 1 1 1 1 1 0 1 1 2 3 5 6 5 4 6 7 8 8 8 6 4 2 2 2 2 2 3 3 4 4 4 4 4 3 4 3 2 1 1
1 1 1 2 2 1 1 1 0 0 0 0 1 1 3 4 5 5 5 5 5 5 5 5 3 2 1 1 1 2 2 2 3 3 4 4 3 3 3 3 3 3 2 1
1 1 1 2 2 1 1 0 0 0 0 0 0 1 2 2 3 4 5 4 3 3 3 2 1 1 0 0 1 2 2 2 2 2 3 3 3 2 2 2 3 2 2 1
0 0 1 1 1 1 1 1 1 0 0 0 0 1 1 2 2 2 2 2 1 1 1 1 1 0 0 0 1 1 2 2 2 2 3 3 3 2 2 2 1 2 1 1
0 0 0 0 1 1 1 1 1 0 0 0 0 1 1 2 1 1 1 0 0 0 1 1 1 0 0 0 1 2 3 3 3 3 3 3 3 2 2 1 1 1 1 1
0 0 0 0 1 1 1 1 1 0 0 0 0 0 1 1 1 1 1 1 0 0 0 1 1 1 0 0 1 2 3 3 3 4 5 5 4 3 2 1 1 1 1 2
0 0 0 0 1 1 1 1 0 0 0 0 0 0 1 1 1 2 1 1 0 0 0 0 0 0 0 0 1 1 2 3 3 4 5 6 6 5 4 2 1 1 2 2
0 0 0 0 0 0 0 0 0 0 0 0 0 0 0 1 1 1 1 1 0 0 0 0 0 0 0 0 1 1 2 2 3 3 4 6 7 6 5 4 2 2 2 2
0 0 0 0 0 0 0 0 0 0 0 0 0 0 0 0 1 1 0 0 0 0 0 0 0 0 0 0 1 1 2 2 2 3 3 4 6 6 6 5 3 3 2 2
0 0 0 0 0 0 0 0 0 0 0 0 0 0 0 0 0 0 0 0 0 0 0 0 0 0 0 0 1 1 1 1 1 2 3 3 4 5 5 4 3 2 2 2
0 0 0 0 0 0 0 0 0 0 0 0 0 0 0 0 0 0 0 0 0 0 0 0 0 0 0 0 0 0 0 0 1 1 2 2 2 3 3 3 3 2 1 1
0 0 0 0 0 0 0 0 0 0 0 0 0 0 0 0 0 0 0 0 0 0 0 0 0 0 0 0 0 0 0 0 0 0 1 1 1 1 1 2 1 1 0 0
0 0 0 0 0 0 0 0 0 0 0 0 0 0 0 0 0 0 0 0 0 0 0 0 0 0 0 0 0 0 0 0 0 0 0 1 1 1 1 1 1 0 0 0

GEFSNGP_con_maxscp_222.txt.gz
SCP
0 0 0 1 1 1 0 0 0 1 1 2 2 2 2 3 3 3 4 5 6 6 6 5 5 5 5 4 4 5 6 7 8 9 9 7 4 3 3 3 2 2 2 2
0 0 0 1 1 1 1 1 1 1 2 2 2 2 3 3 3 3 4 5 6 6 6 6 6 5 5 5 4 5 7 8 9 10 9 7 5 4 4 3 3 3 3 3
0 0 0 1 1 1 1 1 1 1 2 2 3 3 3 3 3 4 4 5 5 6 6 7 7 6 6 6 6 7 8 9 9 10 9 8 6 5 5 4 4 4 4 4
0 0 0 1 1 1 1 2 2 2 2 2 3 3 3 3 3 4 5 6 7 7 6 7 7 6 6 7 9 10 11 10 10 10 10 9 7 6 5 4 5 5 5 5
0 0 0 1 1 1 2 2 3 2 2 2 2 3 3 3 3 4 5 7 8 7 6 6 6 6 6 8 10 13 13 11 10 9 9 7 6 6 5 5 5 5 5 5
0 0 1 1 1 1 1 2 2 2 2 2 2 3 3 3 3 4 5 6 6 6 5 5 6 6 7 9 10 11 11 9 9 8 7 6 5 6 6 7 7 6 6 5
0 1 1 1 1 1 2 2 2 2 2 3 3 3 3 4 4 4 5 5 5 5 5 5 6 6 7 9 10 9 7 6 6 6 6 5 6 7 8 9 9 8 6 5
1 1 2 2 2 2 2 2 3 3 3 4 4 4 4 4 4 5 6 6 7 7 6 6 6 7 8 9 9 8 6 5 5 5 5 5 7 9 11 11 10 8 6 6
2 2 3 3 3 3 3 3 3 3 3 4 4 4 4 3 4 5 7 7 7 7 8 8 8 8 9 10 10 8 6 5 4 3 4 5 7 9 11 10 9 7 6 6
3 4 4 4 4 3 3 3 3 4 4 3 3 3 3 3 4 5 6 5 5 6 7 8 8 9 9 9 9 9 8 6 4 4 4 5 6 8 8 8 7 7 6 5
4 4 4 4 3 3 3 3 4 4 4 3 3 3 2 2 3 5 5 4 3 4 4 5 6 7 8 8 8 8 9 8 6 4 4 5 5 6 6 6 6 6 5 4
4 3 3 3 3 3 3 3 4 3 3 2 2 2 2 2 2 4 5 4 4 3 3 3 4 5 6 7 7 8 9 10 8 6 5 5 5 4 4 4 4 4 4 3
3 3 3 3 3 2 3 3 3 2 2 2 2 2 2 1 2 2 4 5 5 4 3 3 3 4 6 7 9 9 10 11 10 9 8 7 5 4 4 5 4 3 3 2
2 2 3 3 3 2 2 2 2 1 1 1 1 1 1 1 1 2 2 4 5 5 4 3 4 4 6 8 10 11 11 10 11 11 10 9 6 5 5 5 5 4 3 2
2 2 3 3 3 2 2 1 1 1 1 1 1 1 1 1 1 1 2 2 4 5 4 4 4 5 6 7 8 9 9 8 8 9 8 7 6 4 4 5 5 5 4 4
2 2 2 2 2 2 1 1 1 1 1 1 1 1 1 1 1 1 1 1 2 3 4 4 4 5 6 5 5 6 5 4 5 5 5 4 4 4 4 4 4 4 4 4
2 2 2 1 1 1 1 1 1 1 1 1 1 1 1 1 1 1 1 1 1 2 3 4 4 4 4 5 5 5 4 3 3 3 3 3 3 4 5 5 5 4 3 3
2 2 1 1 1 1 1 1 1 1 1 1 1 1 1 1 2 2 1 1 1 1 2 3 2 2 3 5 5 5 5 3 2 2 2 2 3 4 6 6 5 4 3 2
2 2 1 1 1 1 1 1 1 1 1 1 1 1 1 1 1 2 1 1 1 1 1 2 2 2 3 4 4 4 3 2 2 2 2 2 2 3 4 5 5 4 3 2
1 1 1 1 1 1 1 1 1 1 1 1 1 1 1 1 1 1 1 1 1 1 1 1 1 2 2 2 2 2 2 1 1 2 2 2 2 2 4 5 5 5 3 2
1 1 1 1 1 1 1 1 1 1 1 1 1 1 1 1 1 1 1 1 1 1 2 1 1 1 1 0 0 1 1 2 1 1 2 2 2 2 3 5 7 6 4 3
0 0 0 0 1 1 1 1 1 1 1 1 1 1 1 0 0 0 0 1 1 1 1 2 2 1 1 0 0 1 1 2 2 1 1 2 2 2 2 4 7 8 7 5
0 0 0 0 1 1 1 1 1 1 1 1 1 1 1 0 0 0 0 0 0 0 1 1 1 1 0 0 0 0 1 2 3 2 2 2 2 2 2 3 6 8 8 7
0 0 0 1 1 1 0 0 1 1 1 1 1 1 0 0 0 0 0 0 0 0 0 0 1 0 0 0 0 0 1 2 3 3 3 3 2 2 2 2 3 5 7 7
0 0 1 1 1 1 0 0 0 0 0 0 0 0 0 0 0 0 0 0 0 0 0 0 0 0 0 1 0 1 1 2 3 3 3 2 2 1 1 1 2 3 5 6
0 0 0 1 0 0 0 0 0 0 0 0 0 0 0 0 0 0 0 0 0 0 0 0 0 0 1 1 1 1 1 2 2 2 2 2 1 1 1 1 1 2 3 4
0 0 0 0 0 0 0 0 0 0 0 0 0 0 0 0 0 0 0 0 0 0 0 0 0 0 0 1 1 1 1 2 2 2 2 1 1 1 1 1 1 2 2 3

GEFSNGP_con_maxscp_228.txt.gz
SCP
0 0 0 0 0 1 1 1 1 2 4 6 7 8 8 8 8 8 8 10 13 13 13 12 10 9 8 8 8 8 8 9 11 15 16 14 12 13 14 11 7 6 4 3
0 0 0 0 0 1 1 2 2 2 4 6 8 9 8 8 8 8 8 9 11 12 12 12 11 11 11 10 9 8 9 9 11 14 15 13 13 14 14 11 8 6 4 4
0 0 0 0 1 1 1 1 2 3 4 6 8 11 12 11 9 9 9 10 12 12 13 13 13 14 14 13 11 10 10 10 11 12 13 13 13 14 13 11 8 6 5 4
0 0 0 1 1 1 1 2 2 3 4 7 10 14 16 16 14 11 12 14 15 14 13 13 13 14 16 16 14 12 11 10 11 11 12 13 14 13 12 11 9 7 6 5
1 1 1 1 1 1 2 3 4 5 6 10 13 15 16 16 15 14 15 16 15 13 12 11 11 12 14 15 13 11 10 9 9 10 11 15 16 14 12 11 9 7 6 6
1 1 1 1 1 1 2 3 6 8 10 12 14 15 14 13 12 12 13 14 13 12 11 11 10 11 11 12 11 10 9 9 9 9 11 15 16 14 12 11 9 7 6 6
1 2 3 3 2 2 3 4 6 9 11 13 14 14 13 12 10 10 10 11 11 12 13 13 12 11 11 10 10 9 9 10 9 10 11 12 13 11 10 10 9 7 6 6
3 5 7 6 5 4 5 6 7 9 10 12 12 12 11 11 10 10 10 10 10 12 16 18 16 14 13 11 11 10 10 10 9 9 9 9 9 9 8 8 8 7 6 6
5 7 10 10 9 8 8 8 8 8 8 9 9 9 8 8 8 9 9 8 8 10 15 20 20 17 15 13 12 11 10 9 8 8 8 8 8 8 7 7 6 6 6 6
6 7 10 11 10 8 7 7 6 6 7 6 6 6 7 6 6 6 6 5 5 6 10 16 20 19 16 13 11 10 9 8 8 8 9 9 9 7 6 6 6 6 5 5
5 5 6 7 6 5 5 5 5 5 5 5 5 5 6 6 6 5 4 4 3 3 4 9 14 16 14 12 10 8 7 7 8 8 9 9 8 7 5 5 6 5 4 5
4 4 4 4 4 4 4 5 5 5 5 4 4 5 5 5 5 5 4 4 4 3 3 4 7 8 9 9 8 7 7 7 7 8 8 8 7 6 4 4 3 3 3 3
4 4 4 4 5 5 5 6 6 5 5 5 4 5 5 5 4 4 4 4 4 4 3 3 3 4 5 6 6 6 6 6 6 6 6 6 6 5 4 3 3 2 2 2
4 4 5 6 6 6 6 6 6 5 5 4 4 4 4 4 3 3 3 3 4 4 4 3 3 3 4 5 5 5 5 6 6 6 6 6 5 5 4 4 3 3 3 2
3 4 5 6 7 7 6 6 5 4 4 4 4 4 4 3 3 3 3 3 4 4 4 4 3 3 4 5 4 4 5 5 5 5 5 5 5 4 4 4 4 5 5 5
3 4 5 6 6 6 5 4 4 3 3 3 4 4 4 3 3 3 3 3 3 4 5 5 5 4 4 5 5 5 4 4 4 4 4 4 4 3 3 3 4 5 7 8
4 4 5 5 4 4 3 3 3 3 3 5 6 5 5 4 4 4 4 3 3 4 4 5 5 5 5 5 5 5 4 3 3 3 3 3 3 3 3 2 3 4 7 9
4 4 4 3 3 2 2 3 3 4 5 7 7 7 6 5 4 4 3 3 3 3 2 3 4 5 6 5 5 4 4 3 2 2 2 2 2 2 2 2 2 3 5 8
3 3 3 2 2 2 3 3 4 5 7 8 7 6 5 3 3 2 2 2 2 1 1 1 2 4 6 5 4 3 4 3 3 3 2 2 2 2 2 1 1 2 4 6
3 3 2 2 2 2 3 4 5 5 6 7 6 4 3 2 2 1 2 1 1 1 1 1 2 3 4 4 3 3 3 3 3 3 2 1 1 1 1 1 1 1 3 4
3 3 3 2 2 2 3 4 4 4 4 4 3 2 2 2 2 1 1 1 1 1 1 1 1 2 3 3 3 3 3 3 3 2 1 1 1 1 2 2 2 1 1 2
3 3 2 2 2 2 2 2 3 3 3 3 2 2 2 2 2 1 1 1 1 1 0 1 1 1 2 2 3 3 3 3 2 1 1 1 1 2 2 2 2 1 1 2
3 2 2 1 1 1 1 1 2 2 2 2 2 2 2 2 2 1 0 0 0 0 0 0 0 1 1 1 2 2 2 2 1 1 1 1 1 2 2 2 2 2 2 3
2 1 1 1 1 1 1 1 1 1 2 2 1 1 1 1 1 0 0 0 0 0 0 0 0 0 0 0 1 1 1 1 1 1 1 1 1 1 2 2 2 2 3 3
1 1 1 1 1 1 1 1 1 1 1 1 1 1 1 0 0 0 0 0 0 0 0 0 0 0 0 0 0 0 0 1 1 1 1 1 1 1 1 1 2 3 3 3
1 1 1 1 1 0 0 1 1 1 0 0 0 0 0 0 0 0 0 0 0 0 0 0 0 0 0 0 0 0 0 0 0 0 1 1 1 1 2 2 3 3 3 2
0 0 1 1 0 0 0 0 1 1 0 0 0 0 0 0 0 0 0 0 0 0 0 0 0 0 0 0 0 0 0 0 0 0 0 1 1 2 2 3 3 3 2 2

GEFSNGP_con_maxscp_234.txt.gz
SCP
0 0 0 0 0 0 1 1 1 2 3 3 4 4 4 6 8 8 8 7 7 8 9 8 7 6 5 5 5 6 7 7 7 5 4 3 3 3 4 7 10 10 7 5
0 0 1 1 1 1 1 1 2 2 3 4 5 5 5 6 8 9 8 7 6 7 7 8 8 7 6 6 6 7 8 8 8 7 5 3 3 4 5 8 10 10 7 5
0 0 0 1 1 1 1 1 2 2 3 5 6 6 6 6 7 7 7 6 5 5 7 9 9 8 7 6 7 8 9 9 9 8 6 4 4 5 7 9 11 10 7 5
0 0 0 1 1 1 2 2 2 3 4 6 7 6 6 6 6 6 5 5 5 5 7 8 9 9 8 7 7 8 9 9 10 9 7 5 4 5 7 11 12 11 7 5
0 0 1 1 2 2 2 3 3 5 6 8 8 7 6 4 4 4 5 5 5 5 6 7 7 7 7 7 8 8 9 10 10 10 8 7 6 5 7 10 12 11 7 5
0 1 1 2 3 3 3 4 5 6 7 8 9 8 5 4 3 4 4 4 4 4 4 5 5 5 5 6 7 8 9 10 10 10 10 8 6 6 6 8 10 9 7 5
1 1 2 3 4 3 3 4 5 6 7 8 9 8 5 4 4 3 3 3 3 3 3 3 4 4 5 6 6 7 8 10 10 10 9 8 7 6 6 7 8 8 7 6
1 2 3 4 5 5 5 6 8 9 10 10 9 8 6 5 5 4 4 3 2 2 2 3 4 5 6 5 5 6 7 8 9 9 8 8 7 6 5 6 6 6 6 7
2 2 3 4 6 6 8 10 12 13 12 11 9 8 7 6 5 4 4 3 3 2 2 3 4 5 6 6 5 5 6 7 7 8 8 8 7 6 5 4 4 4 5 6
3 3 4 5 5 6 8 10 12 12 11 9 8 7 6 5 4 3 3 3 3 2 2 2 3 5 6 6 5 6 6 6 7 9 9 8 8 6 5 4 4 3 4 4
4 4 5 5 5 6 7 8 8 8 7 6 6 5 5 4 3 2 2 2 2 2 2 2 2 3 4 5 6 6 6 7 8 10 10 10 8 7 6 5 4 4 3 3
4 4 4 4 5 6 7 7 6 5 5 5 5 5 4 4 3 2 2 2 2 2 2 1 1 2 3 4 5 6 6 7 8 9 10 9 8 7 6 5 3 3 3 3
4 4 5 6 6 7 7 6 5 5 5 5 5 4 4 3 2 2 1 1 1 1 2 2 2 2 2 3 4 5 5 5 6 7 7 7 6 6 5 4 2 2 1 1
6 7 9 9 8 7 6 6 5 5 4 4 4 3 3 2 2 1 1 1 1 1 1 2 2 2 2 2 3 3 3 4 4 4 4 4 4 4 4 3 2 1 1 0
8 9 10 10 9 7 6 5 5 4 4 3 3 2 2 1 1 1 1 1 1 1 1 1 1 1 1 2 3 3 3 3 3 3 3 2 2 3 3 3 2 2 1 0
8 8 9 8 7 6 5 5 4 3 3 2 2 1 1 1 1 0 0 0 1 1 0 0 0 1 1 1 2 3 3 3 3 2 2 2 2 2 2 2 2 2 1 1
6 6 6 6 5 4 4 3 3 2 2 1 1 1 1 1 1 0 0 0 0 0 0 0 0 0 0 1 1 2 2 3 2 2 2 1 2 2 2 2 2 2 1 1
5 5 5 4 3 3 2 2 2 1 1 1 1 1 1 1 1 1 0 0 0 0 0 0 0 0 0 0 1 1 2 2 2 2 2 1 2 2 1 1 1 1 1 1
5 4 3 3 2 2 2 1 1 1 1 1 1 1 1 1 1 1 1 1 0 0 0 0 0 0 0 0 1 1 1 2 2 2 1 1 1 1 1 1 1 1 1 1
4 3 2 2 1 1 1 1 1 1 1 1 1 1 1 1 1 1 1 0 0 0 0 0 0 0 0 0 0 1 1 1 1 1 1 1 1 1 1 1 1 1 1 1
2 2 2 1 1 1 1 1 1 1 1 1 1 1 1 1 1 0 0 0 0 0 0 0 0 0 0 0 0 1 1 1 1 1 1 1 1 1 1 1 0 0 0 1
2 2 1 1 1 1 1 0 1 1 1 1 1 1 1 0 0 0 0 0 0 0 0 0 0 0 0 0 0 0 1 1 1 1 1 1 0 0 0 0 0 0 0 1
2 2 1 1 0 0 0 0 1 1 1 1 1 0 0 0 0 0 0 0 0 0 0 0 0 0 0 0 0 0 0 1 1 1 0 0 0 0 0 0 0 0 0 0
1 1 1 0 0 0 1 0 0 0 0 0 0 0 0 0 0 0 0 0 0 0 0 0 0 0 0 0 0 0 0 1 1 0 0 0 0 0 0 0 0 0 0 0
1 0 0 0 0 0 0 0 0 0 0 0 0 0 0 0 0 0 0 0 0 0 0 0 0 0 0 0 0 0 0 0 0 0 0 0 0 0 0 0 0 0 0 0
0 0 0 0 0 0 0 0 0 0 0 0 0 0 0 0 0 0 0 0 0 0 0 0 0 0 0 0 0 0 0 0 0 0 0 0 0 0 0 0 0 0 0 0
0 0 0 0 0 0 0 0 0 0 0 0 0 0 0 0 0 0 0 0 0 0 0 0 0 0 0 0 0 0 0 0 0 0 0 0 0 0 0 0 0 0 0 0

GEFSNGP_con_maxscp_240.txt.gz
SCP
0 0 0 0 0 1 1 0 0 0 1 2 4 6 7 6 4 3 2 2 2 2 3 4 4 4 5 4 4 3 3 3 3 4 4 3 3 3 3 2 2 2 2 2
0 0 0 0 0 1 1 1 1 1 2 3 5 6 6 5 4 3 2 2 2 3 3 3 4 4 5 4 4 4 4 3 3 4 4 3 3 3 3 2 2 2 2 2
0 0 0 0 0 1 1 1 1 1 2 4 5 5 5 4 3 3 2 2 2 3 3 3 4 4 4 4 5 5 5 4 4 4 4 4 3 3 3 3 3 3 3 2
0 0 0 0 0 1 1 1 1 2 2 4 4 4 4 3 2 2 2 2 2 3 3 4 4 4 4 4 5 5 6 6 5 5 5 4 4 3 4 4 4 3 3 3
0 0 0 0 1 1 1 1 1 2 4 4 5 5 4 3 2 2 2 2 2 3 4 5 5 5 4 4 4 5 5 6 5 5 5 5 4 4 4 4 4 4 3 3
0 1 1 1 1 1 1 1 1 3 4 5 5 4 3 2 2 2 2 2 2 3 4 5 5 4 4 3 3 3 4 4 5 5 6 6 5 5 5 5 4 4 3 3
1 1 1 0 0 1 1 1 1 2 3 3 3 3 3 3 3 3 2 2 3 3 3 4 4 4 3 3 2 2 2 3 3 5 6 6 6 6 6 5 4 4 4 4
1 1 1 0 0 0 0 1 1 2 2 3 3 3 4 4 4 3 3 3 3 3 3 3 3 3 3 3 2 2 2 2 3 4 5 7 7 7 6 5 4 4 4 4
1 1 0 0 0 0 0 1 1 2 2 2 3 4 4 4 4 4 3 3 3 3 2 2 2 2 2 2 2 2 2 2 3 4 6 7 7 7 6 6 5 5 5 5
1 1 1 1 1 1 1 1 2 2 2 3 4 4 4 4 4 4 3 3 3 2 2 2 2 2 2 2 2 2 3 3 4 5 5 6 7 7 6 6 6 6 6 6
1 1 2 2 2 1 1 2 3 3 3 3 4 4 4 4 3 3 3 2 2 2 2 1 1 2 2 2 3 3 4 4 4 4 4 5 6 6 5 5 5 5 5 6
1 1 2 2 2 1 2 3 5 5 4 3 4 4 3 3 3 3 2 2 2 2 2 1 1 2 2 2 2 3 4 3 3 3 3 4 5 5 5 4 3 3 3 3
1 1 2 2 2 2 2 4 6 6 4 3 3 2 2 2 2 2 2 2 2 2 1 1 1 1 1 1 2 2 3 3 3 3 3 4 5 5 5 5 3 2 1 1
2 2 2 3 3 3 4 5 6 5 4 2 2 1 1 1 2 2 2 2 1 1 1 1 1 1 1 1 1 2 2 2 3 3 4 4 5 5 5 5 4 3 1 1
2 2 3 3 3 4 4 5 4 3 2 2 2 1 1 1 1 1 1 1 1 0 0 0 0 0 0 1 1 1 1 1 2 3 3 4 4 5 5 5 4 3 2 2
2 2 2 2 2 3 3 3 3 2 2 2 1 1 1 1 1 1 1 1 0 0 0 0 0 0 0 0 1 1 1 1 1 1 2 3 3 4 4 4 4 3 2 2
2 2 1 1 1 2 2 2 2 2 2 2 1 1 1 1 1 1 1 1 0 0 0 0 0 0 0 0 0 0 1 1 1 1 1 1 2 2 3 3 4 3 3 2
2 2 2 2 2 2 2 2 2 2 2 1 1 1 1 0 0 0 0 0 0 0 0 0 0 0 0 0 0 0 0 1 1 1 1 1 1 1 2 2 3 3 2 2
3 3 2 2 2 2 2 2 2 2 1 1 1 0 0 0 0 0 0 0 0 0 0 0 0 0 0 0 0 0 0 0 1 1 1 1 1 1 1 1 2 2 2 2
2 2 2 2 2 2 2 2 1 1 1 0 0 0 0 0 0 0 0 0 0 0 0 0 0 0 0 0 0 0 0 0 0 1 1 1 1 1 1 1 1 1 1 1
2 2 2 2 1 1 1 1 0 0 0 0 0 0 0 0 0 0 0 0 0 0 0 0 0 0 0 0 0 0 0 0 0 1 1 1 1 1 1 1 0 0 0 0
2 2 2 1 1 0 0 0 0 0 0 0 0 0 0 0 0 0 0 0 0 0 0 0 0 0 0 0 0 0 0 0 0 0 1 1 1 1 1 1 0 0 0 0
2 2 1 1 0 0 0 0 0 0 0 0 0 0 0 0 0 0 0 0 0 0 0 0 0 0 0 0 0 0 0 0 0 0 0 1 1 1 0 0 0 0 0 0
2 2 1 0 0 0 0 0 0 0 0 0 0 0 0 0 0 0 0 0 0 0 0 0 0 0 0 0 0 0 0 0 0 0 0 0 0 0 0 0 0 0 0 0
2 1 0 0 0 0 0 0 0 0 0 0 0 0 0 0 0 0 0 0 0 0 0 0 0 0 0 0 0 0 0 0 0 0 0 0 0 0 0 0 0 0 0 0
1 1 0 0 0 0 0 0 0 0 0 0 0 0 0 0 0 0 0 0 0 0 0 0 0 0 0 0 0 0 0 0 0 0 0 0 0 0 0 0 0 0 0 0
0 0 0 0 0 0 0 0 0 0 0 0 0 0 0 0 0 0 0 0 0 0 0 0 0 0 0 0 0 0 0 0 0 0 0 0 0 0 0 0 0 0 0 0

GEFSNGP_con_maxscp_246.txt.gz
SCP
0 0 0 0 0 0 0 0 0 0 1 2 2 2 2 2 2 2 2 3 5 6 6 6 5 4 4 6 8 11 12 12 11 9 9 9 9 9 9 9 7 6 6 6
0 0 0 0 0 0 0 0 0 1 1 2 2 3 3 2 2 2 2 3 5 6 6 6 5 4 4 5 7 10 12 12 11 9 9 9 9 10 10 9 8 7 6 6
0 0 0 0 0 0 1 1 1 1 1 2 3 4 3 3 2 2 3 4 5 7 8 7 6 5 4 5 6 8 10 11 11 10 9 8 8 9 10 9 7 7 6 6
0 0 0 1 1 1 1 1 1 1 1 2 4 5 4 3 2 3 4 5 7 8 9 9 7 6 5 5 5 6 7 10 11 11 9 7 7 8 8 7 7 6 6 6
0 0 1 1 1 1 1 1 1 1 1 2 4 4 4 3 2 3 4 6 7 9 9 8 7 6 6 6 5 5 5 7 8 9 8 7 7 8 8 8 8 7 6 6
1 1 1 1 1 1 1 1 1 1 1 2 3 3 3 3 4 5 6 7 8 9 9 8 7 6 6 6 5 5 5 5 6 6 7 7 8 9 11 11 10 9 7 6
0 0 1 1 1 1 1 1 1 1 2 2 3 3 4 5 6 8 10 10 9 9 9 9 8 7 7 6 6 5 4 4 4 5 5 6 7 10 13 14 14 13 10 8
1 1 1 1 1 1 2 2 2 2 2 3 4 6 6 7 8 10 11 11 10 9 9 9 9 9 8 8 7 5 4 4 4 4 4 5 6 8 11 14 16 16 13 11
1 1 1 1 2 2 2 2 2 2 2 4 6 8 9 8 8 9 9 9 8 8 8 9 9 8 8 8 8 6 5 4 4 4 4 5 6 6 8 11 13 14 14 12
2 1 1 1 2 2 2 2 2 2 3 5 7 10 10 9 8 7 7 7 7 7 7 7 7 7 6 6 6 5 4 4 3 3 4 5 5 5 6 7 8 10 11 11
2 2 2 2 2 2 2 3 2 2 3 5 7 9 9 8 7 7 7 7 7 6 5 4 5 5 4 4 3 3 3 2 2 3 4 5 5 5 4 4 5 6 8 9
2 2 2 3 2 2 2 2 2 2 3 4 7 8 8 7 7 7 7 7 7 6 4 3 3 3 3 2 2 2 2 2 2 3 4 5 5 5 4 3 3 4 4 4
3 3 3 3 3 3 3 3 2 2 3 5 6 7 6 6 7 8 7 8 8 7 5 4 3 3 3 3 3 2 2 1 2 2 3 4 5 5 4 3 3 2 2 1
4 4 4 4 4 4 5 4 3 3 4 5 5 6 5 6 7 8 8 8 8 7 6 5 4 4 3 3 3 3 2 1 2 2 2 3 4 5 5 5 4 3 2 1
4 4 4 4 5 6 6 5 4 4 5 6 5 5 5 6 6 8 8 8 8 8 7 6 5 4 4 4 4 3 2 1 1 1 1 2 3 4 5 5 4 3 2 1
4 5 4 4 6 7 6 4 4 5 6 6 5 5 5 5 6 7 8 7 7 7 7 6 5 4 5 5 4 3 2 1 1 1 1 1 2 2 3 4 3 3 2 2
5 5 5 5 6 7 5 4 4 5 6 7 6 5 5 5 5 6 6 6 6 6 6 5 4 4 5 5 5 3 2 1 1 1 1 1 1 1 2 2 2 2 2 2
5 5 5 5 5 6 5 4 5 6 8 8 7 6 5 5 4 4 4 5 5 4 4 4 4 3 4 5 5 3 2 1 1 1 1 1 0 1 1 1 2 2 2 1
4 4 4 5 5 5 5 5 6 8 9 9 7 6 5 4 3 3 3 3 3 2 2 3 3 3 3 4 4 3 1 0 0 0 0 0 0 1 1 1 2 2 2 2
3 3 4 4 4 5 5 6 8 8 8 7 6 4 3 3 2 2 2 2 2 2 1 2 3 3 4 3 2 1 1 0 0 0 0 0 0 1 1 1 2 2 2 2
2 2 3 4 4 4 4 5 6 6 5 4 3 2 2 2 2 1 1 2 2 2 1 2 3 4 3 2 1 0 0 0 0 0 0 0 0 1 1 1 2 2 2 2
1 2 2 3 3 3 3 3 3 2 2 1 1 1 1 1 1 1 1 1 1 1 2 2 2 2 2 1 0 0 0 0 0 0 0 0 0 1 1 1 2 1 1 1
2 2 2 2 2 2 2 1 1 1 1 1 1 1 1 1 1 1 1 0 1 1 2 2 1 1 1 1 0 0 0 0 0 0 0 0 0 1 1 1 2 2 1 1
3 3 3 3 2 1 1 1 1 1 1 1 1 1 1 1 0 0 1 1 0 1 1 1 0 0 0 1 1 0 0 0 0 0 0 0 0 1 1 1 1 2 2 1
3 3 4 4 3 2 1 1 1 1 1 1 1 1 1 1 1 1 1 1 0 0 0 0 0 0 0 1 1 0 0 0 0 0 0 0 1 1 1 1 1 2 2 2
3 3 4 4 4 2 1 1 1 1 1 1 1 1 1 1 2 2 2 1 0 0 0 0 0 0 0 0 0 0 0 0 0 0 0 0 0 1 1 1 1 2 2 2
3 3 4 4 3 2 2 1 1 2 2 2 1 1 1 1 2 2 1 1 0 0 0 0 0 0 0 0 0 0 0 0 0 0 0 0 0 1 1 1 1 2 2 1

GEFSNGP_con_maxscp_252.txt.gz
SCP
0 0 0 0 0 0 0 0 1 2 3 5 7 8 7 7 7 8 8 8 8 9 9 10 10 10 9 10 10 11 10 9 11 13 13 12 11 11 12 13 13 14 14 14
1 1 0 0 0 0 0 0 1 2 3 6 8 7 6 5 5 6 6 6 7 8 9 9 10 11 11 11 11 11 10 9 10 12 14 14 13 12 13 14 15 15 15 15
2 1 0 0 0 0 0 1 1 2 4 6 7 6 5 4 4 4 4 5 6 7 9 10 11 11 12 12 12 12 11 10 9 10 12 13 13 13 13 14 15 16 15 15
2 1 0 0 0 0 1 2 3 3 5 6 7 7 7 7 6 5 5 6 7 8 9 10 10 11 12 12 12 12 11 10 9 8 8 9 9 10 11 12 14 14 14 15
2 1 0 0 1 1 1 2 3 4 5 6 7 9 9 9 9 10 11 11 10 9 10 10 10 10 10 11 11 10 10 9 9 8 7 7 7 7 8 9 10 11 13 15
2 1 0 1 1 1 1 2 3 4 5 6 8 10 12 14 17 21 23 18 12 12 13 13 11 11 10 10 9 9 9 9 9 9 8 7 6 6 7 7 7 8 10 13
1 1 1 1 1 2 2 3 4 4 5 8 12 15 18 22 25 28 28 21 14 15 16 16 14 13 12 12 11 10 9 9 10 9 8 8 7 6 6 6 6 7 8 9
1 1 2 2 2 2 3 5 7 9 9 12 15 17 19 21 22 23 22 18 15 15 16 16 16 16 16 15 13 12 11 11 11 10 9 8 8 7 6 6 5 6 6 7
2 2 3 4 3 3 4 5 8 11 13 13 14 14 14 14 14 14 14 15 16 17 17 17 17 18 18 16 15 14 14 13 13 11 8 7 7 7 6 5 4 5 5 6
4 4 5 4 4 4 4 5 6 8 10 11 11 11 12 13 13 12 13 16 18 19 19 18 17 17 16 16 15 15 15 14 12 9 7 5 5 5 4 3 3 4 4 5
6 6 5 5 5 5 5 4 4 4 6 9 10 11 14 15 15 13 14 17 19 20 20 18 16 15 14 15 16 16 14 11 8 5 4 4 3 3 2 2 2 3 3 3
5 5 5 5 5 5 4 4 3 3 5 8 11 14 17 17 16 15 15 15 16 17 17 16 15 13 12 13 15 15 12 8 5 3 2 2 2 2 2 2 2 2 2 2
4 4 4 5 5 4 3 3 3 3 4 8 13 17 18 16 14 14 13 13 13 14 15 15 14 12 10 10 12 12 10 6 3 2 2 2 1 1 1 1 1 1 1 1
4 4 4 4 4 3 3 2 3 3 4 7 13 17 17 14 12 12 11 11 13 14 15 15 13 10 8 7 8 8 6 3 2 1 1 1 1 1 1 1 2 2 1 1
4 4 4 4 4 4 3 3 2 2 3 6 12 15 14 12 11 11 12 13 15 16 15 14 11 8 6 6 6 5 3 2 1 1 1 1 1 1 1 1 1 2 2 1
3 3 3 4 5 5 5 4 3 2 3 7 12 14 12 11 12 13 14 14 15 15 14 12 10 8 7 6 5 4 3 2 1 1 1 1 1 1 1 1 1 1 2 2
3 3 3 3 4 5 6 6 6 6 6 9 13 14 12 12 13 14 14 13 13 12 11 11 10 9 8 7 5 4 3 2 2 2 2 2 2 2 1 1 1 1 1 2
2 2 2 3 4 5 5 6 7 8 9 12 13 12 11 12 12 12 11 10 9 8 8 9 9 9 8 7 6 5 5 4 3 3 3 3 2 2 2 1 1 1 1 1
2 2 2 3 4 5 5 5 5 6 8 11 11 10 9 9 9 8 7 7 6 6 6 6 6 7 7 6 5 6 6 4 3 3 3 3 2 2 2 1 1 1 1 2
1 1 2 3 4 4 5 5 5 6 8 9 8 7 6 6 5 5 5 6 5 4 4 4 4 5 5 4 4 5 5 4 3 2 3 2 2 2 2 1 1 1 2 2
1 1 2 3 3 3 3 4 6 7 8 7 6 4 4 4 3 3 3 4 4 3 2 3 3 4 4 3 3 4 5 4 2 2 2 2 2 2 2 1 1 1 2 2
1 1 2 3 3 2 2 3 4 6 6 5 3 2 2 2 2 2 2 2 2 2 2 3 4 4 3 3 3 4 4 3 2 1 1 2 2 2 1 1 1 1 2 2
1 1 2 2 2 2 1 2 2 3 3 3 2 2 1 1 2 2 1 1 1 1 1 3 3 2 2 3 4 4 4 3 2 1 1 1 1 1 1 1 1 2 2 3
2 2 2 1 1 1 1 1 1 2 2 2 2 1 1 1 1 1 1 1 0 0 1 2 1 1 2 4 5 4 4 3 2 1 1 1 1 1 1 1 1 2 3 4
3 3 3 2 2 2 2 2 1 1 2 2 2 1 1 1 1 1 1 1 1 1 1 1 1 1 3 5 6 5 4 3 2 1 0 0 1 1 1 1 1 3 5 5
3 3 3 3 3 3 2 2 2 1 1 1 1 1 1 1 1 1 1 1 1 2 2 2 2 2 4 6 7 6 4 3 1 0 0 0 0 1 1 1 1 3 5 5
1 2 3 3 3 3 3 2 2 1 1 1 1 1 2 2 2 1 1 1 2 2 2 3 3 3 5 6 6 5 4 2 1 0 0 0 1 1 1 1 1 3 4 5

GEFSNGP_con_maxscp_258.txt.gz
SCP
0 0 0 0 0 0 0 0 0 1 2 4 8 9 9 9 11 12 10 8 7 6 5 5 7 8 9 9 8 7 7 8 9 9 8 7 6 5 5 5 5 5 5 5
0 0 0 0 0 0 0 1 1 1 2 5 8 9 9 8 9 9 8 8 7 6 5 5 6 7 7 7 7 8 8 8 9 9 9 8 7 5 4 4 5 5 5 5
0 0 0 0 0 1 1 1 1 2 3 5 7 8 7 6 6 6 6 7 7 6 6 5 5 6 6 5 6 9 9 11 12 10 10 9 8 6 5 4 5 6 6 6
0 0 0 1 1 1 2 2 2 3 4 6 7 8 7 7 7 8 9 10 10 9 8 6 5 6 6 6 8 9 12 18 20 15 11 10 8 7 5 5 5 6 7 7
0 0 0 1 2 2 2 3 3 4 5 6 7 9 10 11 12 14 16 16 14 11 9 8 7 7 8 10 10 10 14 21 25 22 16 11 7 6 6 5 5 6 6 6
0 0 1 1 2 2 2 3 3 4 5 6 7 10 10 11 15 18 18 16 13 11 11 10 10 10 12 14 14 13 15 20 24 26 23 15 8 6 6 5 4 4 4 4
1 1 1 1 2 2 2 2 3 4 5 6 7 8 8 10 15 18 16 13 11 13 15 15 14 14 16 18 17 15 15 19 23 26 27 22 13 8 6 5 4 3 2 2
1 1 1 2 2 2 2 2 2 3 4 5 7 7 8 12 18 21 18 13 12 17 20 18 16 17 19 20 19 16 15 17 22 26 29 27 20 10 6 5 3 2 1 1
1 1 2 2 2 2 2 1 2 3 4 5 7 10 14 21 27 28 22 16 15 20 22 19 17 19 21 21 19 16 12 13 19 26 30 29 21 10 4 3 2 1 1 1
1 2 2 2 2 2 2 2 2 3 4 5 8 14 22 31 35 33 25 19 17 20 21 18 18 20 22 21 17 14 10 9 12 20 25 26 20 10 3 1 1 0 0 0
1 2 2 3 4 4 4 4 4 4 3 4 7 14 23 31 35 32 26 21 18 19 20 20 19 20 20 17 14 11 8 6 6 8 15 22 20 11 3 1 0 0 0 0
1 1 3 5 6 6 6 5 4 3 2 3 5 10 15 20 24 25 23 20 18 18 20 20 19 17 14 12 10 8 6 4 3 3 9 21 20 9 2 0 0 0 0 0
1 2 5 7 7 6 5 4 3 2 2 3 4 5 6 7 10 15 17 17 16 17 19 19 16 12 9 9 8 6 5 3 2 2 9 21 21 9 2 0 0 0 0 0
1 2 5 6 6 4 4 3 2 1 1 2 3 4 3 2 4 7 11 13 14 16 18 16 12 9 8 9 8 6 4 3 2 2 7 17 20 13 4 0 0 0 0 0
1 2 4 4 3 2 2 2 1 1 1 2 2 3 3 2 2 3 5 7 10 14 16 13 9 8 9 10 9 6 4 2 2 2 4 9 13 11 4 0 0 0 0 0
1 1 2 2 1 1 1 1 1 1 2 2 2 2 2 2 2 2 2 3 8 12 13 10 8 8 10 10 8 5 3 2 2 2 2 3 4 4 1 0 0 0 0 0
1 1 1 1 1 1 1 1 1 1 2 2 2 2 2 2 2 2 2 3 7 11 11 9 8 9 9 8 6 5 3 2 2 2 1 1 1 0 0 0 0 0 0 0
1 1 1 1 1 1 1 1 1 2 2 2 2 2 3 3 3 3 2 3 6 9 9 7 7 7 7 5 5 4 4 3 2 2 1 1 1 0 0 0 0 0 0 0
1 1 1 1 2 2 2 1 1 2 2 2 2 2 3 3 3 3 3 4 5 6 6 5 5 4 4 3 3 4 4 4 4 3 2 1 1 1 0 0 0 0 0 0
1 1 1 1 2 2 2 1 1 1 1 1 1 2 2 3 4 4 3 3 4 3 3 2 2 2 2 2 3 4 5 5 5 5 3 2 1 1 0 0 0 0 0 0
1 1 1 1 1 1 1 1 1 1 1 1 2 2 3 3 4 3 2 2 2 1 1 1 1 1 1 1 2 4 5 7 7 7 6 4 2 1 0 0 0 0 0 0
1 1 1 1 1 1 1 1 1 1 1 2 3 3 3 2 2 1 1 1 1 0 0 0 0 1 1 1 2 3 5 6 7 8 7 4 2 0 0 0 0 0 0 0
1 1 1 1 1 1 1 1 1 1 2 2 2 2 1 1 1 0 0 0 0 0 0 0 0 0 0 1 2 3 3 4 5 6 5 3 1 0 0 0 0 1 1 1
0 0 0 0 0 1 1 1 1 1 1 1 0 0 0 0 0 0 0 0 0 0 0 0 0 0 0 0 1 2 2 3 3 4 3 2 1 1 0 0 0 1 1 1
0 0 0 0 0 0 1 1 0 0 0 0 0 0 0 0 0 0 0 0 0 0 0 0 0 0 0 0 0 1 2 2 3 3 3 2 2 1 1 1 1 1 1 2
0 0 0 0 0 0 0 0 0 0 0 0 0 0 0 0 0 0 0 0 0 0 0 0 0 0 0 0 0 1 1 2 2 2 2 2 2 1 1 1 1 1 1 1
0 0 0 0 0 0 0 0 0 0 0 0 0 0 0 1 1 1 0 0 0 0 0 0 0 0 0 0 0 0 1 1 1 1 2 2 2 1 1 1 1 1 1 0